Tracking 28790 objects as of 19-Apr-2024
HD Live streaming from Space Station
objects crossing your sky now

COSMOS 1897 DEB

Track COSMOS 1897 DEB now!


NORAD ID: 44572
Int'l Code: 1987-096G
Perigee: 35,666.4 km
Apogee: 35,803.2 km
Inclination: 12.0 °
Period: 1,433.1 minutes
Semi major axis: 42105 km
RCS: Unknown
Launch date: November 26, 1987
Source: Commonwealth of Independent States (former USSR) (CIS)
Launch site: TYURATAM MISSILE AND SPACE COMPLEX (TTMTR)

Note: This is SATELLITE DEBRIS
Your satellite tracking list
Your tracking list is empty




NASA's NSSDC Master Catalog

Two Line Element Set (TLE):
1 44572U 87096G   24109.86177616 -.00000342  00000-0  00000+0 0  9999
2 44572  11.9745 331.7184 0016243 273.6347  11.5404  1.00482417 64390
Source of the keplerian elements: AFSPC